THOR ABLESTAR DEB, 408

Orbit data source: Space-Track

THOR ABLESTAR DEB, 408 is space debris in LEO originally from a launch on Thu, 29 Jun 1961 UTC launched from the Air Force Eastern Test Range (AFETR). Debris objects in space refer to the collection of defunct objects orbiting the Earth. Examples of debris include non-operational satellites, rocket bodies, and fragments generated from explosions, collisions, or faulty payload assembly.

Loading next visibility...
Identifier
408, 1961-015EH
Orbit
LEO
Last TLE update
10 hours ago
Origin
Manufacturer
Unknown
Mission
Spacecraft
Bus & Motor
Unknown
Mass
Unknown
Launch date (UTC)
1961-06-29 (64 years ago)
Launch vehicle
Unknown
Launch site
Air Force Eastern Test Range (AFETR)
Object type
Payload
Rocket body
Debris
Shape & HBR
Unknown
Radar Cross Section
Medium (>0.1 m² and <1 m²)

Expand to show TLE details & history

TLE from 10 hours ago
0 THOR ABLESTAR DEB
1 00408U 61015EH  25187.50523044  .00000286  00000-0  35945-3 0  9996
2 00408  66.7843 214.3055 0065712 348.9330 132.2405 13.76830330258106
Epoch: 2025-07-06T12:07Z
TLE epoch observation values (Epoch: 2025-07-06T12:07:31.91Z)
Latitude
51.52967°
Longitude
-104.78614°
Altitude
1,015.274 km
Speed
7.333 km/s
True Right ascension
00h 07m 17s
True Declination
51° 22' 04"
Sunlit
Object was in daylight at epoch
Visualization orbit readout
Latitude
15.71963°
Longitude
113.6026°
Altitude
933.996 km
Speed
7.408 km/s
Apparent Right ascension
17h 24m 21s
Apparent Declination
-16° 43' 60"
Sunlit
Object is in daylight
Visualization observer readout
Local Sidereal Time
10:04:53
Azimuth
90.764° ESE
Elevation
-25.744°
Doppler factor
1
Orbital elements
Apogee altitude
1,021.866 km
Perigee altitude
925.247 km
Semi-major axis
7,351.694 km
Eccentricity
0.00657
Inclination
66.7843°
RAAN
214.3055°
Arg. of periapsis
348.933°
True anomaly
Unknown
Mean anomaly
132.2405°
Eccentric anomaly
Unknown
Mean motion
3.4432 °/min
Orbital period
104.55 mins
BSTAR
0.00035945
Loading maneuver chart data...
Loading SW <> Apogee altitude chart data...

THOR ABLESTAR DEB Visibility forecast

Observer location: undefined°, undefined°

Span
Click to sort rows by Start time (UTC) header in descending order
Start Az.
Max El. time (UTC)
Max El. Az.
Max El.
End time (UTC)
End Az.
10 mins2025-07-07 03:21:49.038Z201.271° SSW2025-07-07 03:25:49.038Z163.301° S44.081°2025-07-07 03:31:49.038Z31.613° NE
7 mins2025-07-07 05:11:49.038Z285.177° WNW2025-07-07 05:14:49.038Z321.211° NNW19.301°2025-07-07 05:18:49.038Z2.412° NNE
6 mins2025-07-07 10:44:49.038Z12.698° NNE2025-07-07 10:47:49.038Z45.517° ENE17.467°2025-07-07 10:50:49.038Z75.912° E
11 mins2025-07-07 12:30:49.038Z332.968° NNW2025-07-07 12:35:49.038Z35.778° NE44.797°2025-07-07 12:41:49.038Z149.562° SSE
5 mins2025-07-07 14:20:49.038Z276.838° WNW2025-07-07 14:22:49.038Z256.19° W15.318°2025-07-07 14:25:49.038Z227.24° WSW
|